FW4683 Weather Reports


Display with metric or nautical units.
time (UTC)temp
F
wind
direction
speed
MPH
gust
MPH
rain 1hr
in
rain 24hr
in
rain mn
in
humidity
%
barometer
mb
20260904144549 84 96 0.0 2.0 0.00 0.00 0.00 73 1016.7
20260904144048 84 96 0.0 3.0 0.00 0.00 0.00 74 1016.8
20260904143547 82 96 0.0 3.0 0.00 0.00 0.00 75 1016.7
20260904143046 82 96 1.0 3.0 0.00 0.00 0.00 75 1016.7
20260904142545 82 96 0.0 6.0 0.00 0.00 0.00 76 1016.7
20260904142044 82 95 1.0 6.0 0.00 0.00 0.00 76 1016.7
20260904141544 81 95 1.0 4.0 0.00 0.00 0.00 76 1016.7
20260904141042 81 96 0.0 6.0 0.00 0.00 0.00 78 1016.8
20260904140540 80 95 0.0 6.0 0.00 0.00 0.00 79 1016.7
20260904140040 79 96 0.0 6.0 0.00 0.00 0.00 79 1016.7
20260904135539 79 96 1.0 4.0 0.00 0.00 0.00 79 1016.7
20260904135038 79 96 0.0 6.0 0.00 0.00 0.00 81 1016.7
20260904134545 78 95 2.0 6.0 0.00 0.00 0.00 82 1016.7
20260904134041 78 96 0.0 4.0 0.00 0.00 0.00 83 1016.6
20260904133538 77 96 1.0 6.0 0.00 0.00 0.00 84 1016.6
20260904133053 77 95 0.0 4.0 0.00 0.00 0.00 84 1016.6
20260904132533 77 96 1.0 4.0 0.00 0.00 0.00 85 1016.4
20260904132031 76 95 1.0 7.0 0.00 0.00 0.00 85 1016.6
20260904131531 76 96 2.0 8.0 0.00 0.00 0.00 85 1016.6
20260904131030 76 95 6.0 8.0 0.00 0.00 0.00 84 1016.7
20260904130529 76 96 3.0 7.0 0.00 0.00 0.00 85 1016.6
20260904130028 76 95 1.0 6.0 0.00 0.00 0.00 86 1016.7
20260904125528 75 96 2.0 6.0 0.00 0.00 0.00 86 1016.7
20260904125031 75 96 0.0 6.0 0.00 0.00 0.00 87 1016.9
20260904124527 75 96 0.0 7.0 0.00 0.00 0.00 88 1016.7
20260904124028 74 96 1.0 7.0 0.00 0.00 0.00 88 1016.5
20260904123532 74 96 1.0 6.0 0.00 0.00 0.00 88 1016.7
20260904123027 74 96 0.0 6.0 0.00 0.00 0.00 88 1016.7
20260904122530 74 96 2.0 4.0 0.00 0.00 0.00 87 1016.8
20260904122027 74 96 0.0 4.0 0.00 0.00 0.00 88 1016.7
20260904121529 73 96 0.0 4.0 0.00 0.00 0.00 89 1016.7
20260904121029 73 95 0.0 6.0 0.00 0.00 0.00 89 1016.7
20260904120525 73 95 2.0 6.0 0.00 0.00 0.00 90 1016.6
20260904120034 72 96 0.0 2.0 0.00 0.00 0.00 90 1016.5
20260904115525 72 96 0.0 2.0 0.00 0.00 0.00 91 1016.6
20260904115025 72 96 0.0 2.0 0.00 0.00 0.00 91 1016.6
20260904114525 72 96 0.0 3.0 0.00 0.00 0.00 91 1016.6
20260904114026 72 96 0.0 3.0 0.00 0.00 0.00 92 1016.6
20260904113525 71 96 0.0 1.0 0.00 0.00 0.00 93 1016.3
20260904113025 71 96 0.0 1.0 0.00 0.00 0.00 93 1016.3
20260904112524 71 96 0.0 0.0 0.00 0.00 0.00 93 1016.3
20260904112024 71 96 0.0 0.0 0.00 0.00 0.00 94 1016.2
20260904111525 71 96 0.0 0.0 0.00 0.00 0.00 94 1016.0
20260904111024 71 96 0.0 0.0 0.00 0.00 0.00 94 1015.8
20260904110524 71 96 0.0 0.0 0.00 0.00 0.00 94 1016.0
20260904110024 71 95 0.0 0.0 0.00 0.00 0.00 94 1016.0
20260904105526 71 96 0.0 0.0 0.00 0.00 0.00 95 1015.8
20260904105028 71 96 0.0 0.0 0.00 0.00 0.00 95 1015.7
20260904104534 71 96 0.0 0.0 0.00 0.00 0.00 95 1015.8
20260904104028 71 96 0.0 0.0 0.00 0.00 0.00 95 1015.8
20260904103523 71 96 0.0 0.0 0.00 0.00 0.00 94 1015.7
20260904103021 71 96 0.0 0.0 0.00 0.00 0.00 94 1015.7
20260904102523 71 96 0.0 0.0 0.00 0.00 0.00 94 1015.8
20260904102025 71 96 0.0 0.0 0.00 0.00 0.00 94 1015.8
20260904101532 71 96 0.0 0.0 0.00 0.00 0.00 94 1015.7
20260904101019 71 96 0.0 3.0 0.00 0.00 0.00 94 1015.6
20260904100519 72 96 1.0 3.0 0.00 0.00 0.00 94 1015.6
20260904100120 72 96 0.0 1.0 0.00 0.00 0.00 94 1015.6
20260904095519 72 96 0.0 1.0 0.00 0.00 0.00 94 1015.6
20260904095019 72 96 0.0 4.0 0.00 0.00 0.00 94 1015.5
20260904094517 72 96 1.0 4.0 0.00 0.00 0.00 94 1015.6
20260904094017 72 96 0.0 0.0 0.00 0.00 0.00 94 1015.5
20260904093522 72 96 0.0 0.0 0.00 0.00 0.00 94 1015.4
20260904093018 72 96 0.0 0.0 0.00 0.00 0.00 93 1015.4
20260904092520 72 96 0.0 0.0 0.00 0.00 0.00 93 1015.4
20260904092017 72 96 0.0 3.0 0.00 0.00 0.00 93 1015.5
20260904091517 72 96 0.0 4.0 0.00 0.00 0.00 93 1015.4
20260904091019 73 96 1.0 4.0 0.00 0.00 0.00 92 1015.4
20260904090518 73 96 0.0 3.0 0.00 0.00 0.00 92 1015.3
20260904090019 72 96 0.0 3.0 0.00 0.00 0.00 92 1015.3
20260904085515 73 96 0.0 1.0 0.00 0.00 0.00 92 1015.3
20260904085017 73 96 0.0 1.0 0.00 0.00 0.00 92 1015.1
20260904084514 73 96 0.0 1.0 0.00 0.00 0.00 92 1015.2
20260904084015 73 95 0.0 1.0 0.00 0.00 0.00 92 1015.2
20260904083514 73 95 0.0 1.0 0.00 0.00 0.00 92 1015.2
20260904083017 73 96 0.0 1.0 0.00 0.00 0.00 92 1015.2
20260904082515 73 96 0.0 2.0 0.00 0.00 0.00 92 1015.3
20260904082014 73 96 0.0 2.0 0.00 0.00 0.00 92 1015.2
20260904081514 73 96 0.0 0.0 0.00 0.00 0.00 92 1015.1
20260904081014 73 96 0.0 0.0 0.00 0.00 0.00 92 1015.2
20260904080515 73 96 0.0 1.0 0.00 0.00 0.00 92 1015.1
20260904080014 73 96 0.0 1.0 0.00 0.00 0.00 92 1015.1
20260904075513 73 95 0.0 1.0 0.00 0.00 0.00 92 1015.1
20260904075014 73 95 0.0 1.0 0.00 0.00 0.00 92 1015.1
20260904074512 73 95 0.0 1.0 0.00 0.00 0.00 92 1015.1
20260904074016 73 96 0.0 1.0 0.00 0.00 0.00 92 1015.1
20260904073513 74 96 0.0 1.0 0.00 0.00 0.00 91 1015.0
20260904073010 74 95 0.0 1.0 0.00 0.00 0.00 91 1015.1
20260904072509 74 96 0.0 0.0 0.00 0.00 0.00 91 1015.1
20260904072009 74 96 0.0 0.0 0.00 0.00 0.00 91 1015.2
20260904071509 74 96 0.0 0.0 0.00 0.00 0.00 91 1015.1
20260904071010 74 95 0.0 1.0 0.00 0.00 0.00 91 1015.2
20260904070507 74 96 0.0 2.0 0.00 0.00 0.00 91 1015.3
20260904070015 74 95 0.0 3.0 0.00 0.00 0.00 91 1015.3
20260904065509 74 96 0.0 2.0 0.00 0.00 0.00 91 1015.4
20260904065005 74 96 0.0 2.0 0.00 0.00 0.00 91 1015.3
20260904064505 74 96 1.0 2.0 0.00 0.00 0.00 90 1015.4
20260904064005 75 96 0.0 2.0 0.00 0.00 0.00 90 1015.5
20260904063505 74 96 0.0 3.0 0.00 0.00 0.00 91 1015.5
20260904063005 74 96 0.0 3.0 0.00 0.00 0.00 91 1015.5
20260904062503 74 95 1.0 3.0 0.00 0.00 0.00 91 1015.5
20260904062003 75 95 0.0 0.0 0.00 0.00 0.00 91 1015.6
20260904061507 75 95 0.0 0.0 0.00 0.00 0.00 90 1015.6
20260904061004 75 96 0.0 0.0 0.00 0.00 0.00 90 1015.8
20260904060502 75 96 0.0 0.0 0.00 0.00 0.00 90 1015.8
20260904060002 75 96 0.0 0.0 0.00 0.00 0.00 90 1015.8
20260904055559 75 96 0.0 0.0 0.00 0.00 0.00 89 1015.8
20260904055059 75 95 0.0 0.0 0.00 0.00 0.00 89 1016.0
20260904054602 75 96 0.0 0.0 0.00 0.00 0.00 89 1016.1
20260904054058 75 96 0.0 0.0 0.00 0.00 0.00 89 1016.1
20260904053557 75 96 0.0 1.0 0.00 0.00 0.00 89 1016.3
20260904052556 75 95 1.0 3.0 0.00 0.00 0.00 90 1016.4
20260904052055 75 96 0.0 2.0 0.00 0.00 0.00 90 1016.5
20260904051608 75 95 0.0 2.0 0.00 0.00 0.00 90 1016.5
20260904051053 76 96 0.0 0.0 0.00 0.00 0.00 89 1016.5
20260904050554 76 96 0.0 0.0 0.00 0.00 0.00 89 1016.5
20260904050155 76 95 0.0 0.0 0.00 0.00 0.00 89 1016.5
20260904045553 76 96 0.0 0.0 0.00 0.00 0.00 89 1016.6
20260904045053 76 96 0.0 2.0 0.00 0.00 0.00 88 1016.6
20260904044602 76 96 0.0 2.0 0.00 0.00 0.00 88 1016.7
20260904044053 76 96 0.0 1.0 0.00 0.00 0.00 88 1016.8
20260904043552 76 96 0.0 2.0 0.00 0.00 0.00 88 1016.8
20260904042555 77 96 0.0 1.0 0.00 0.00 0.00 88 1016.7
20260904042059 77 96 0.0 3.0 0.00 0.00 0.00 87 1016.8
20260904041557 77 96 0.0 3.0 0.00 0.00 0.00 87 1016.8
20260904041055 78 96 0.0 3.0 0.00 0.00 0.00 86 1016.7
20260904040555 77 96 0.0 1.0 0.00 0.00 0.00 87 1016.7
20260904040055 77 96 0.0 1.0 0.00 0.00 0.00 88 1016.7
20260904035555 77 96 0.0 2.0 0.00 0.00 0.00 87 1016.7
20260904035054 77 96 0.0 2.0 0.00 0.00 0.00 87 1016.6
20260904034554 78 96 0.0 2.0 0.00 0.00 0.00 87 1016.6
20260904034056 78 96 0.0 1.0 0.00 0.00 0.00 87 1016.7
20260904033554 78 96 0.0 1.0 0.00 0.00 0.00 86 1016.7
20260904032551 78 95 0.0 2.0 0.00 0.00 0.00 86 1016.8
20260904032051 78 96 0.0 2.0 0.00 0.00 0.00 85 1016.8
20260904031551 78 96 0.0 1.0 0.00 0.00 0.00 86 1016.9
20260904031053 78 95 0.0 1.0 0.00 0.00 0.00 85 1016.9
20260904030553 79 95 0.0 0.0 0.00 0.00 0.00 85 1016.9
20260904030051 79 95 0.0 1.0 0.00 0.00 0.00 84 1016.8
20260904025551 79 96 0.0 1.0 0.00 0.00 0.00 83 1016.8
20260904025051 79 96 0.0 1.0 0.00 0.00 0.00 84 1016.9
20260904024601 79 95 0.0 0.0 0.00 0.00 0.00 84 1016.9
20260904024051 79 96 0.0 0.0 0.00 0.00 0.00 84 1016.9
20260904023551 79 96 0.0 1.0 0.00 0.00 0.00 83 1016.9
20260904022553 79 95 0.0 1.0 0.00 0.00 0.00 83 1016.9
20260904022054 80 96 0.0 1.0 0.00 0.00 0.00 81 1016.8
20260904021557 80 95 0.0 1.0 0.00 0.00 0.00 82 1017.0
20260904021053 80 96 0.0 3.0 0.00 0.00 0.00 85 1017.0
20260904020553 80 96 0.0 3.0 0.00 0.00 0.00 84 1016.9
20260904020052 80 96 0.0 1.0 0.00 0.00 0.00 84 1016.9
20260904015552 80 95 0.0 1.0 0.00 0.00 0.00 84 1016.9
20260904015054 80 96 0.0 3.0 0.00 0.00 0.00 84 1016.8
20260904014604 80 95 1.0 3.0 0.00 0.00 0.00 83 1016.7
20260904014053 81 96 0.0 1.0 0.00 0.00 0.00 82 1016.6
20260904013556 81 96 0.0 2.0 0.00 0.00 0.00 82 1016.6
20260904012551 81 95 0.0 1.0 0.00 0.00 0.00 80 1016.5
20260904012050 82 96 0.0 1.0 0.00 0.00 0.00 80 1016.5
20260904011551 82 95 0.0 2.0 0.00 0.00 0.00 80 1016.3
20260904011052 82 96 0.0 3.0 0.00 0.00 0.00 80 1016.2
20260904010549 82 96 0.0 4.0 0.00 0.00 0.00 80 1016.1
20260904010050 82 96 1.0 4.0 0.00 0.00 0.00 80 1016.1
20260904005550 83 95 0.0 3.0 0.00 0.00 0.00 81 1015.9
20260904005050 83 96 2.0 3.0 0.00 0.00 0.00 81 1015.9
20260904004550 83 96 0.0 1.0 0.00 0.00 0.00 79 1015.8
20260904004049 83 96 0.0 1.0 0.00 0.00 0.00 79 1015.5
20260904003548 84 96 0.0 1.0 0.00 0.00 0.00 79 1015.4
20260904002549 85 96 0.0 1.0 0.00 0.00 0.00 78 1015.3
20260904002052 85 96 0.0 1.0 0.00 0.00 0.00 79 1015.3
20260904001556 85 96 0.0 0.0 0.00 0.00 0.00 78 1015.3
20260904001048 86 96 0.0 1.0 0.00 0.00 0.00 78 1015.1
20260904000548 86 95 0.0 1.0 0.00 0.00 0.00 78 1015.0
20260904000110 86 95 0.0 1.0 0.00 0.00 0.00 77 1014.9
20260903235548 87 96 0.0 2.0 0.00 0.00 0.00 77 1014.8
20260903235047 87 96 0.0 2.0 0.00 0.00 0.00 77 1014.9
20260903234547 87 96 0.0 1.0 0.00 0.00 0.00 76 1014.8
20260903234047 88 95 0.0 1.0 0.00 0.00 0.00 74 1014.8
20260903233546 89 96 0.0 2.0 0.00 0.00 0.00 71 1014.7
20260903232547 89 95 0.0 3.0 0.00 0.00 0.00 71 1014.7
20260903232048 90 96 1.0 3.0 0.00 0.00 0.00 67 1014.6
20260903231548 92 96 0.0 1.0 0.00 0.00 0.00 62 1014.6
20260903231046 92 96 0.0 2.0 0.00 0.00 0.00 63 1014.6
20260903230547 91 96 0.0 4.0 0.00 0.00 0.00 63 1014.5
20260903230105 91 95 1.0 4.0 0.00 0.00 0.00 64 1014.6
20260903225546 92 96 1.0 6.0 0.00 0.00 0.00 60 1014.6
20260903225045 92 96 1.0 6.0 0.00 0.00 0.00 61 1014.5
20260903224559 92 96 0.0 4.0 0.00 0.00 0.00 59 1014.5
20260903224045 92 96 1.0 4.0 0.00 0.00 0.00 59 1014.5
20260903223545 93 96 1.0 4.0 0.00 0.00 0.00 57 1014.6
20260903222547 93 96 2.0 6.0 0.00 0.00 0.00 57 1014.6
20260903222047 93 96 1.0 6.0 0.00 0.00 0.00 57 1014.7
20260903221547 94 96 1.0 7.0 0.00 0.00 0.00 56 1014.7
20260903221049 95 95 1.0 7.0 0.00 0.00 0.00 54 1014.8
20260903220544 95 96 0.0 3.0 0.00 0.00 0.00 55 1014.6
20260903220044 95 95 0.0 3.0 0.00 0.00 0.00 55 1014.6
20260903215542 94 96 0.0 4.0 0.00 0.00 0.00 56 1014.6
20260903215043 94 96 0.0 4.0 0.00 0.00 0.00 55 1014.7
20260903214547 94 96 0.0 6.0 0.00 0.00 0.00 57 1014.8
20260903214040 93 96 3.0 6.0 0.00 0.00 0.00 57 1014.7
20260903213541 94 96 2.0 6.0 0.00 0.00 0.00 56 1014.8
20260903212538 94 95 2.0 7.0 0.00 0.00 0.00 56 1014.8
20260903212037 94 95 0.0 7.0 0.00 0.00 0.00 56 1014.8
20260903211542 94 96 1.0 7.0 0.00 0.00 0.00 57 1014.9
20260903211037 94 95 1.0 7.0 0.00 0.00 0.00 57 1014.9
20260903210538 94 96 0.0 6.0 0.00 0.00 0.00 56 1014.9
20260903210050 94 96 3.0 7.0 0.00 0.00 0.00 57 1015.0
20260903205539 93 95 2.0 7.0 0.00 0.00 0.00 57 1015.0
20260903205035 93 95 4.0 7.0 0.00 0.00 0.00 58 1015.0
20260903204537 93 96 2.0 8.0 0.00 0.00 0.00 57 1015.0
20260903204038 94 96 3.0 6.0 0.00 0.00 0.00 56 1015.1
20260903203537 93 96 2.0 6.0 0.00 0.00 0.00 56 1015.2
20260903202535 94 96 1.0 6.0 0.00 0.00 0.00 55 1015.3
20260903202035 94 96 1.0 8.0 0.00 0.00 0.00 55 1015.4
20260903201535 94 96 2.0 8.0 0.00 0.00 0.00 54 1015.5
20260903201034 94 95 2.0 8.0 0.00 0.00 0.00 53 1015.5
20260903200533 94 95 0.0 7.0 0.00 0.00 0.00 54 1015.6
20260903200033 93 96 4.0 7.0 0.00 0.00 0.00 54 1015.5
20260903195534 93 96 1.0 7.0 0.00 0.00 0.00 54 1015.6
20260903195034 93 96 2.0 8.0 0.00 0.00 0.00 54 1015.6
20260903194541 93 96 4.0 10.0 0.00 0.00 0.00 56 1015.6
20260903194032 93 96 6.0 10.0 0.00 0.00 0.00 55 1015.6
20260903193538 92 96 3.0 9.0 0.00 0.00 0.00 57 1015.7
20260903192530 92 96 3.0 9.0 0.00 0.00 0.00 58 1015.7
20260903192030 93 96 3.0 9.0 0.00 0.00 0.00 57 1015.8
20260903191528 93 96 3.0 9.0 0.00 0.00 0.00 57 1016.0
20260903191027 93 95 5.0 9.0 0.00 0.00 0.00 56 1016.0
20260903190526 95 96 0.0 4.0 0.00 0.00 0.00 55 1016.1
20260903190026 94 96 1.0 7.0 0.00 0.00 0.00 55 1016.2
20260903185524 94 95 1.0 7.0 0.00 0.00 0.00 54 1016.3
20260903185030 94 96 0.0 7.0 0.00 0.00 0.00 54 1016.4
20260903184524 93 96 2.0 9.0 0.00 0.00 0.00 54 1016.4
20260903184025 94 96 2.0 9.0 0.00 0.00 0.00 53 1016.3
20260903183523 94 95 3.0 9.0 0.00 0.00 0.00 55 1016.4
20260903182530 94 96 2.0 8.0 0.00 0.00 0.00 55 1016.5
20260903182025 94 96 2.0 8.0 0.00 0.00 0.00 54 1016.5
20260903181523 94 96 0.0 8.0 0.00 0.00 0.00 54 1016.5
20260903181026 94 95 0.0 12.0 0.00 0.00 0.00 53 1016.5
20260903180524 92 95 4.0 12.0 0.00 0.00 0.00 54 1016.7
20260903180026 93 95 3.0 9.0 0.00 0.00 0.00 56 1016.7
20260903175522 92 96 0.0 9.0 0.00 0.00 0.00 58 1016.6
20260903175021 93 95 4.0 8.0 0.00 0.00 0.00 57 1016.7
20260903174521 93 96 4.0 7.0 0.00 0.00 0.00 55 1016.7
20260903174023 93 95 0.0 4.0 0.00 0.00 0.00 59 1016.9
20260903173522 93 95 2.0 9.0 0.00 0.00 0.00 59 1017.0
20260903172515 92 96 0.0 8.0 0.00 0.00 0.00 59 1017.1
20260903172017 93 95 2.0 8.0 0.00 0.00 0.00 59 1017.3
20260903171512 92 96 0.0 6.0 0.00 0.00 0.00 61 1017.4
20260903171011 91 96 1.0 6.0 0.00 0.00 0.00 60 1017.4
20260903170511 91 95 1.0 6.0 0.00 0.00 0.00 60 1017.5
20260903170016 91 96 3.0 6.0 0.00 0.00 0.00 61 1017.4
20260903165510 91 96 0.0 7.0 0.00 0.00 0.00 62 1017.5
20260903165010 92 95 0.0 4.0 0.00 0.00 0.00 62 1017.6
20260903164510 91 95 1.0 4.0 0.00 0.00 0.00 61 1017.6
20260903164010 91 96 0.0 6.0 0.00 0.00 0.00 62 1017.7
20260903163509 91 96 0.0 6.0 0.00 0.00 0.00 61 1017.7
20260903162510 89 96 0.0 9.0 0.00 0.00 0.00 64 1017.7
20260903162006 89 95 1.0 10.0 0.00 0.00 0.00 64 1017.7
20260903161520 89 96 3.0 10.0 0.00 0.00 0.00 63 1017.8
20260903161005 89 95 1.0 10.0 0.00 0.00 0.00 64 1017.9
20260903160505 89 96 2.0 10.0 0.00 0.00 0.00 65 1017.9
20260903160006 89 96 2.0 9.0 0.00 0.00 0.00 66 1017.9
20260903155505 88 95 1.0 10.0 0.00 0.00 0.00 67 1017.9
20260903155004 88 95 2.0 10.0 0.00 0.00 0.00 68 1018.0
20260903154503 88 96 0.0 7.0 0.00 0.00 0.00 68 1017.9
20260903154003 88 96 1.0 7.0 0.00 0.00 0.00 69 1018.0
20260903153503 88 96 2.0 7.0 0.00 0.00 0.00 65 1018.0
20260903152504 87 96 0.0 8.0 0.00 0.00 0.00 69 1017.8
20260903152005 86 95 2.0 8.0 0.00 0.00 0.00 68 1018.0
20260903151503 86 96 2.0 9.0 0.00 0.00 0.00 69 1018.0
20260903151003 86 96 2.0 9.0 0.00 0.00 0.00 68 1018.1
20260903150502 86 96 0.0 9.0 0.00 0.00 0.00 70 1018.1
20260903150005 85 95 2.0 9.0 0.00 0.00 0.00 70 1018.0
20260903145504 85 95 2.0 9.0 0.00 0.00 0.00 69 1018.0
20260903145001 86 95 0.0 4.0 0.00 0.00 0.00 71 1018.1